QSAT-EOS
1 40301U 14070D 21028.83414726 .00003278 00000-0 12171-3 0 9993
2 40301 97.2711 103.9647 0026149 108.1033 28.7024 15.27953312346335
FIREBIRD FU3
1 40377U 15003B 21028.57662017 .00003676 00000-0 13960-3 0 9991
2 40377 99.0833 140.8260 0119384 281.5273 77.2573 15.21312985331511
FIREBIRD FU4
1 40378U 15003C 21028.75463377 .00003278 00000-0 12479-3 0 9992
2 40378 99.0839 141.1598 0119532 280.7689 78.0104 15.21352809331555
GRIFEX
1 40379U 15003D 21028.23735050 .00002168 00000-0 92267-4 0 9997
2 40379 99.0840 131.0043 0129562 312.2713 46.7586 15.17295584330910
NO-84
1 40654U 15025D 21027.31974838 .00033894 00000-0 30492-3 0 1706
2 40654 54.9842 343.8098 0099613 53.8877 307.1410 15.61693950203909
DEORBITSAIL
1 40719U 15032E 21028.40303375 .00000549 00000-0 84469-4 0 9993
2 40719 97.8463 277.1766 0015643 196.5878 163.4823 14.77219343299300
NUDT-PHONESAT
1 40900U 15049B 21028.83246442 .00004043 00000-0 16284-3 0 9993
2 40900 97.4258 43.9253 0010404 270.9262 173.8335 15.25391353297536
XW-2A
1 40903U 15049E 21028.84689608 .00004130 00000-0 91379-4 0 9998
2 40903 97.2586 83.6872 0013436 156.4889 320.1594 15.44294181301240
XW-2C
1 40906U 15049H 21028.87596245 .00001037 00000-0 56697-4 0 9995
2 40906 97.4829 33.0243 0013399 317.0695 92.5362 15.16451820296413
XW-2D
1 40907U 15049J 21028.83830749 .00001202 00000-0 64655-4 0 9999
2 40907 97.4815 32.7390 0012778 313.8411 129.7642 15.16734735296433
LILACSAT-2
1 40908U 15049K 21028.86129503 .00000897 00000-0 52548-4 0 9999
2 40908 97.4999 30.8051 0014802 327.6077 116.7052 15.14270567296102
XW-2E
1 40909U 15049L 21028.88091547 .00001839 00000-0 90927-4 0 9998
2 40909 97.4664 36.6059 0011759 300.8707 143.4667 15.19054609296746
XW-2F
1 40910U 15049M 21028.71273816 .00001752 00000-0 87977-4 0 9998
2 40910 97.4716 35.5151 0012894 300.3406 176.1763 15.18558623296518
XW-2B
1 40911U 15049N 21028.70662135 .00001056 00000-0 57324-4 0 9994
2 40911 97.4823 33.3044 0012601 315.3911 155.3148 15.16653993296305
DCBB
1 40912U 15049P 21028.74254116 .00002077 00000-0 96565-4 0 9999
2 40912 97.4468 39.8673 0012905 272.2916 203.0951 15.21033740296955
TW-1C
1 40926U 15051B 21028.83046922 .00233130 22333-4 68160-3 0 9993
2 40926 97.0449 90.2723 0002014 256.0594 215.0663 15.92795009302473
TW-1A
1 40928U 15051D 21028.77875586 .00005825 00000-0 12774-3 0 9995
2 40928 97.0908 57.0747 0011746 84.6913 25.5840 15.44378854300127
IO-86
1 40931U 15052B 21028.73492354 .00000718 00000-0 10840-4 0 9993
2 40931 5.9991 168.7883 0013537 229.3940 130.4975 14.76660517288618
LQSat
1 40958U 15057A 21028.69250976 .00000029 00000-0 12053-4 0 9997
2 40958 97.8248 90.3640 0018972 142.4384 217.8156 14.73153038285663
ATHENOXAT-1
1 41168U 15077C 21028.85412968 .00002744 00000-0 10583-3 0 9993
2 41168 14.9873 206.9290 0011108 25.1642 12.2340 15.15117597283572
ChubuSat-2
1 41338U 16012B 21028.56950688 .00000463 00000-0 29130-4 0 9991
2 41338 31.0047 355.3425 0013766 187.5486 172.4943 15.00430832271573
ChubuSat-3
1 41339U 16012C 21028.60661224 .00000387 00000-0 23115-4 0 9994
2 41339 31.0134 352.4818 0013303 196.0961 163.9260 15.00585681271575
Horyu-4
1 41340U 16012D 21028.24695294 .00000755 00000-0 49919-4 0 9999
2 41340 31.0064 340.0238 0013962 220.4273 139.5326 15.01725341271692
OUFTI-1
1 41458U 16025C 21028.79826440 .00003858 00000-0 19045-3 0 9995
2 41458 98.1234 157.7286 0161008 170.1449 190.3001 15.07873332261427
e-st@r-II
1 41459U 16025D 21028.78112126 .00003886 00000-0 19344-3 0 9997
2 41459 98.1213 156.9238 0162945 172.7222 187.6444 15.07349601261372
AAUSAT4
1 41460U 16025E 21028.81410411 .00007369 00000-0 34884-3 0 9997
2 41460 98.1208 160.1696 0150598 158.7286 202.0301 15.10108203261636
LO-87
1 41557U 16033B 21028.89112630 .00002433 00000-0 89385-4 0 9997
2 41557 97.3972 123.6886 0013617 17.0291 119.4683 15.28819547260205
NuSat2
1 41558U 16033C 21028.88571806 .00002821 00000-0 96933-4 0 9999
2 41558 97.4052 126.8807 0012381 12.8864 121.3085 15.30890922260364
Lapan A3
1 41603U 16040E 21028.89532764 .00000182 00000-0 11525-4 0 9991
2 41603 97.2789 80.9602 0014617 127.5272 318.0883 15.19951031255387
Swayam
1 41607U 16040J 21028.12463979 .00002936 00000-0 11970-3 0 9994
2 41607 97.2890 87.9151 0014457 112.1718 248.1056 15.25130206255652
Pratham
1 41783U 16059A 21028.40662711 .00000094 00000-0 27263-4 0 9991
2 41783 97.9864 83.1573 0032757 329.5378 30.3921 14.63108125231775
AlSat 1N
1 41789U 16059G 21028.70744951 .00000096 00000-0 27071-4 0 9996
2 41789 97.9914 86.8050 0027180 314.4986 45.3991 14.64383526231997
ScatSat
1 41790U 16059H 21028.84324335 .00000004 00000-0 12463-4 0 9991
2 41790 98.3887 71.3407 0004443 319.3787 40.7065 14.50804808229903
TY-1
1 41844U 16066D 21028.87713550 .00001621 00000-0 67002-4 0 9998
2 41844 97.4011 40.5559 0013023 270.5024 161.9470 15.25378024234624
Pegasus-1
1 41846U 16066F 21028.40833431 .00000371 00000-0 67532-4 0 9999
2 41846 98.6319 86.4687 0365164 283.0185 73.0478 14.37927625221293
CAS-2T
1 41847U 16066G 21028.42439303 .00000153 00000-0 34479-4 0 9994
2 41847 98.6233 86.8317 0364295 278.2734 77.7305 14.38140202221753
EO-88
1 42017U 17008BX 21028.20422005 .00003273 00000-0 12465-3 0 9994
2 42017 97.3347 98.2613 0004666 236.9493 123.1298 15.27424680219845
CAS-4B
1 42759U 17034B 21028.87442014 .00000339 00000-0 33846-4 0 9998
2 42759 43.0170 228.3462 0010254 1.6536 130.1274 15.10054188200041
CAS-4A
1 42761U 17034D 21028.73413050 .00000356 00000-0 34863-4 0 9993
2 42761 43.0171 228.2676 0010542 2.3867 93.5210 15.10134901200028
UCLSat
1 42765U 17036A 21028.39308518 .00002509 00000-0 10553-3 0 9994
2 42765 97.2714 82.2743 0009781 319.4604 40.5904 15.24265117200833
NIUSat
1 42766U 17036B 21028.39030451 .00001758 00000-0 79161-4 0 9999
2 42766 97.2713 79.1064 0013875 313.5062 46.5020 15.22281083199904
LituanicaSAT 2
1 42768U 17036D 21028.39135675 .00004224 00000-0 17029-3 0 9990
2 42768 97.2783 82.6803 0012624 305.1588 54.8467 15.25292400200115
Aalto 1
1 42775U 17036L 21028.75635813 .00001360 00000-0 61892-4 0 9993
2 42775 97.2686 79.7663 0012318 311.8597 48.1588 15.22304760199948
URSA MAIOR
1 42776U 17036M 21028.38709109 .00001593 00000-0 71495-4 0 9991
2 42776 97.2700 79.7989 0012120 312.8352 47.1866 15.22536627199901
Max Valier Sat
1 42778U 17036P 21028.39410960 .00001631 00000-0 71838-4 0 9992
2 42778 97.2763 81.4748 0010695 315.8482 44.1901 15.23170759199961
Pegasus
1 42784U 17036V 21028.13905958 .00002018 00000-0 86346-4 0 9997
2 42784 97.2719 81.6211 0010455 321.6304 38.4189 15.23889806199984
NUDATSat
1 42787U 17036Y 21028.57263728 .00002604 00000-0 10536-3 0 9998
2 42787 97.2767 84.0158 0009683 314.4415 45.6033 15.25541625200001
SUCHAI 1
1 42788U 17036Z 21028.79642371 .00002421 00000-0 10101-3 0 9993
2 42788 97.2727 83.0764 0009787 316.5731 43.4735 15.24573024200203
SKCUBE
1 42789U 17036AA 21028.40980374 .00002525 00000-0 10591-3 0 9998
2 42789 97.2722 82.4755 0009747 318.8592 41.1910 15.24356225200053
VZLUSAT 1
1 42790U 17036AB 21028.17111845 .00003385 00000-0 13623-3 0 9997
2 42790 97.2756 83.6144 0009098 315.9527 44.0985 15.25519887200096
VENTA 1
1 42791U 17036AC 21028.38733130 .00002448 00000-0 10284-3 0 9997
2 42791 97.2719 82.4811 0009444 319.7393 40.3144 15.24330078200045
Robusta 1B
1 42792U 17036AD 21028.79335242 .00002320 00000-0 96937-4 0 9994
2 42792 97.2724 83.1746 0009298 317.6728 42.3791 15.24572641200148
